Location: Newark
(36.0797°N, 3.9744°E)
Time: 15:06:03
(UTC+00:00)

Vanguard 2 Rocket - Pass Details

Date: 13 December 2019
Orbit: 554 x 3326 km, 32.9° (Epoch: 23 January)

Event Time Altitude Azimuth Distance (km) Brightness Sun altitude
Rises 17:07:55 0° 248° (WSW) 7,104 14.1 -7.7°
Reaches altitude 10° 17:13:07 10° 246° (WSW) 5,843 12.7 -8.6°
Maximum altitude 17:29:41 68° 168° (SSE) 2,193 8.8 -11.8°
Enters shadow 17:38:13 14° 89° (E) 3,268 9.1 -13.4°
Drops below altitude 10° 17:39:06 10° 88° (E) 3,510 - -13.6°
Sets 17:41:27 0° 85° (E) 4,208 - -14.0°
